Location: Silent Lake
(44.9206°N, 78.0708°W)
Time: 09:22:42
(UTC-04:00)

Cosmos 1862 - Pass Details

Date: 19 April 2018
Orbit: 538 x 559 km, 82.5° (Epoch: 26 May)

Event Time Altitude Azimuth Distance (km) Brightness Sun altitude
Rises 22:11:42 0° 355° (N) 2,749 7.6 -20.6°
Reaches altitude 10° 22:13:55 10° 359° (N) 1,846 6.6 -20.8°
Enters shadow 22:17:52 58° 75° (ENE) 652 3.4 -21.4°
